Location: Brusselsch Zeekanaal
(50.8667°N, 4.3667°E)
Time: 08:45:21
(UTC+00:00)

CZ-2D R/B - Visible Passes

Search period start: 15 February 2026 00:00
Search period end: 25 February 2026 00:00
Orbit: 388 x 399 km, 97.4° (Epoch: 13 February)

Date Brightness Start Highest point End Pass type
(mag) Time Alt. Az. Time Alt. Az. Time Alt. Az.
15 Feb 6.1 18:23:45 10° SW 18:25:46 16° W 18:27:47 10° NW visible
16 Feb 6.4 05:32:07 10° ENE 05:33:37 13° E 05:35:08 10° ESE visible
16 Feb 2.9 17:30:09 10° S 17:33:11 76° WSW 17:36:15 10° NNW visible
17 Feb 4.5 06:10:11 10° NNE 06:13:04 37° E 06:15:56 10° SSE visible
17 Feb 5.5 18:09:58 10° SSW 18:12:29 23° W 18:15:00 10° NW visible
19 Feb 5.4 05:57:00 10° NE 05:59:36 25° E 06:02:11 10° SSE visible
19 Feb 4.7 17:56:08 10° SSW 17:58:56 34° W 18:01:46 10° NNW visible
20 Feb 6.5 18:36:52 10° WSW 18:38:09 12° W 18:39:26 10° WNW visible
21 Feb 6.1 05:43:43 10° NE 05:45:51 17° E 05:47:59 10° SE visible
21 Feb 3.6 17:42:11 10° S 17:45:10 52° W 17:48:10 10° NNW visible
22 Feb 6.0 18:22:02 10° SW 18:24:10 17° W 18:26:18 10° NW visible
23 Feb 6.6 05:30:32 10° ENE 05:31:48 12° E 05:33:03 10° ESE visible
24 Feb 5.3 18:07:20 10° SSW 18:09:56 25° W 18:12:33 10° NW visible
